This is the latest recevied weather packets stored in our database for station/object KR4KUV. If no packets are shown the sender has not sent any weather packets the latest 10 day(s).
| Time | Temp. | Humidity | Pressure | Rain* | Wind** | Luminosity | Snow |
|---|---|---|---|---|---|---|---|
| 1787424117 | 27.22° C | 79% | 1017.1 hPa | 0 mm | - | 234 W/m² | - |
| 1787423813 | 27.78° C | 79% | 1017.1 hPa | 0 mm | - | 490 W/m² | - |
| 1787423509 | 27.22° C | 80% | 1017.1 hPa | 0 mm | - | 783 W/m² | - |
| 1787423205 | 26.67° C | 81% | 1017.2 hPa | 0 mm | - | 755 W/m² | - |
| 1787422901 | 26.11° C | 83% | 1017.4 hPa | 0 mm | - | 670 W/m² | - |
| 1787422597 | 26.11° C | 82% | 1017.4 hPa | 0 mm | - | 338 W/m² | - |
| 1787422292 | 25.56° C | 82% | 1017.6 hPa | 0 mm | - | 337 W/m² | - |
| 1787421988 | 26.11° C | 82% | 1017.7 hPa | 0 mm | - | 267 W/m² | - |
| 1787421685 | 25.56° C | 82% | 1017.7 hPa | 0 mm | - | 250 W/m² | - |
| 1787421380 | 25.56° C | 81% | 1017.7 hPa | 0 mm | - | 282 W/m² | - |
| 1787421075 | 26.11° C | 81% | 1017.8 hPa | 0 mm | - | 308 W/m² | - |
| 1787420770 | 26.11° C | 81% | 1017.7 hPa | 0 mm | - | 337 W/m² | - |
| 1787420467 | 25.56° C | 83% | 1017.9 hPa | 0 mm | - | 222 W/m² | - |
| 1787420163 | 25.56° C | 84% | 1017.9 hPa | 0 mm | - | 187 W/m² | - |
| 1787419858 | 25.56° C | 82% | 1017.8 hPa | 0 mm | - | 165 W/m² | - |
| 1787419555 | 25.56° C | 80% | 1017.9 hPa | 0 mm | - | 168 W/m² | - |
| 1787419249 | 25.56° C | 81% | 1017.9 hPa | 0 mm | - | 169 W/m² | - |
| 1787418945 | 26.11° C | 81% | 1017.9 hPa | 0 mm | - | 172 W/m² | - |
| 1787418641 | 26.11° C | 81% | 1017.8 hPa | 0 mm | - | 214 W/m² | - |
| 1787418337 | 25.56° C | 82% | 1017.7 hPa | 0 mm | - | 245 W/m² | - |
| 1787418033 | 25.56° C | 81% | 1017.8 hPa | 0 mm | - | 228 W/m² | - |
| 1787417728 | 25.56° C | 83% | 1017.8 hPa | 0 mm | - | 232 W/m² | - |
| 1787417428 | 25° C | 83% | 1017.7 hPa | 0 mm | - | 246 W/m² | - |
| 1787417118 | 25° C | 84% | 1018 hPa | 0 mm | - | 217 W/m² | - |
| 1787416814 | 25° C | 84% | 1018.1 hPa | 0 mm | - | 221 W/m² | - |
* Rain latest hour (hover to see other rain measurements)
** Current wind speed in m/s (hover to see current wind gust speed)